Location: Ch?enovice
(49.7164°N, 15.2160°E)
Time: 11:27:00
(UTC+00:00)

USA 267 - Pass Details

Date: 12 November 2025
Orbit: 1100 x 1108 km, 123.0° (Epoch: 21 November)

Event Time Altitude Azimuth Distance (km) Brightness Sun altitude
Rises 05:27:38 0° 67° (ENE) 3,924 7.0 -6.6°
Reaches altitude 10° 05:30:11 10° 63° (ENE) 2,965 6.2 -6.2°
Maximum altitude 05:36:26 50° 350° (N) 1,374 3.6 -5.2°
Drops below altitude 10° 05:42:41 10° 278° (W) 2,959 4.9 -4.3°
Enters shadow 05:44:32 - 274° (W) 3,649 5.4 -4.0°
